Weather in Seget Donji

Croatia     43°31′08″N   16°13′44″E
temp.,
°C
wind,
m/s
gust,
m/s
humid.,
%
clouds,
%
prec.,
mm/h
press.,
hPa
HPBL,
m
11 may, tue
tue1123:00+18ene44635 0.0 101631
02:00+17ene33645 0.0 101626
05:00+17ene4462100 0.0 101541
08:00+18e456414 0.0 1014123
11:00+19se47680 0.0 1014218
14:00+19se47690 0.0 1013228
17:00+19ese586999 0.0 1011251
20:00+18ese697294 0.0 1010190
12 may, wed
wed1223:00+18se61072100 0.0 1010255
02:00+16ese91288100 0.7 1009351
05:00+17sse678099 2.6 1008211
08:00+17nnw34708 5.8 1008187
11:00+19nw45560 0.0 1008398
14:00+19wnw785680 0.0 1009516
17:00+19wnw445812 0.0 1008356
20:00+17nnw226715 0.0 100814
13 may, thu
thu1323:00+16wnw3468100 0.0 100982
02:00+16nne346099 0.3 1008217
05:00+15nne235613 0.0 1007208
08:00+16n235724 0.0 1008444
11:00+17ssw225318 0.0 1008564
14:00+16ssw33575 0.1 1008417
17:00+17sse23640 0.0 1007344
20:00+16e34725 0.4 1007231
14 may, fri
fri1423:00+15ene567978 0.8 1008257
02:00+15ne227360 1.4 100981
05:00+15ne227151 0.1 100995
08:00+16ese3369100 0.3 1010264
11:00+16ese677698 1.1 1011733
14:00+17se4576100 2.6 1011369
17:00+17sse456940 0.5 1012435
20:00+16se4771100 0.5 1013354
15 may, sat
sat1523:00+15ese798050 0.1 1013518
02:00+15e687699 0.5 1012393
05:00+15ene6974100 0.1 1010425
08:00+16ese91377100 0.3 1010858
11:00+15ese91185100 2.1 1009659
14:00+15ese8984100 4.9 1007624
17:00+15e5684100 2.9 1007407
20:00+15n2274100 3.4 1008208